GW1804 Weather Reports


time (UTC)temp
F
wind
direction
speed
knots
gust
knots
rain 1hr
in
rain 24hr
in
rain mn
in
humidity
%
barometer
mb
20260508000050 65 248 1.7 6.1 0.00 0.00 0.00 80 1014.7
20260507235533 65 305 0.9 6.1 0.00 0.00 0.00 80 1014.8
20260507235031 65 308 1.7 6.1 0.00 0.00 0.00 80 1014.8
20260507234549 65 313 2.6 6.1 0.00 0.00 0.00 80 1014.7
20260507234056 65 265 0.9 6.1 0.00 0.00 0.00 80 1014.7
20260507233533 65 306 2.6 7.0 0.00 0.00 0.00 80 1014.7
20260507233048 65 315 2.6 7.0 0.00 0.00 0.00 80 1014.7
20260507232531 65 292 2.6 7.0 0.00 0.00 0.00 80 1014.7
20260507232034 65 269 2.6 8.7 0.00 0.00 0.00 80 1014.6
20260507231545 65 5 2.6 8.7 0.00 0.00 0.00 80 1014.7
20260507231032 65 322 1.7 7.0 0.00 0.00 0.00 80 1014.6
20260507230532 65 233 2.6 7.0 0.00 0.00 0.00 80 1014.6
20260507230044 66 273 2.6 7.0 0.00 0.00 0.00 79 1014.6
20260507225532 66 249 2.6 7.0 0.00 0.00 0.00 79 1014.7
20260507225032 66 287 2.6 7.0 0.00 0.00 0.00 79 1014.7
20260507224552 66 312 1.7 7.0 0.00 0.00 0.00 79 1014.7
20260507224032 66 236 2.6 9.6 0.00 0.00 0.00 79 1014.8
20260507223532 66 273 2.6 9.6 0.00 0.00 0.00 79 1014.9
20260507223050 66 271 4.3 9.6 0.00 0.00 0.00 78 1014.9
20260507222532 66 263 2.6 7.0 0.00 0.00 0.00 79 1014.9
20260507222032 66 229 3.5 7.0 0.00 0.00 0.00 78 1014.9
20260507221543 66 278 1.7 7.8 0.00 0.00 0.00 78 1015.0
20260507221031 67 265 1.7 7.8 0.00 0.00 0.00 77 1015.0
20260507220531 67 277 2.6 7.0 0.00 0.00 0.00 77 1015.1
20260507220054 67 284 2.6 8.7 0.00 0.00 0.00 77 1015.1
20260507215535 67 201 3.5 8.7 0.00 0.00 0.00 77 1015.1
20260507215031 67 299 3.5 9.6 0.00 0.00 0.00 77 1015.1
20260507214552 67 265 4.3 9.6 0.00 0.00 0.00 77 1015.2
20260507214033 67 283 2.6 8.7 0.00 0.00 0.00 77 1015.2
20260507213531 67 272 3.5 8.7 0.00 0.00 0.00 77 1015.3
20260507213049 68 293 3.5 7.8 0.00 0.00 0.00 76 1015.3
20260507212531 68 272 3.5 7.8 0.00 0.00 0.00 76 1015.2
20260507212031 68 242 3.5 7.8 0.00 0.00 0.00 75 1015.3
20260507211551 68 242 4.3 7.0 0.00 0.00 0.00 75 1015.3
20260507211034 69 284 3.5 7.8 0.00 0.00 0.00 76 1015.4
20260507210532 68 256 2.6 7.8 0.00 0.00 0.00 76 1015.4
20260507210047 68 254 3.5 10.4 0.00 0.00 0.00 76 1015.4
20260507205535 68 283 3.5 10.4 0.00 0.00 0.00 77 1015.5
20260507205034 68 213 4.3 8.7 0.00 0.00 0.00 76 1015.5
20260507204550 68 282 3.5 8.7 0.00 0.00 0.00 76 1015.6
20260507204034 68 277 4.3 10.4 0.00 0.00 0.00 77 1015.7
20260507203533 68 294 4.3 10.4 0.00 0.00 0.00 76 1015.5
20260507203045 68 219 4.3 9.6 0.00 0.00 0.00 76 1015.6
20260507202531 68 252 4.3 9.6 0.00 0.00 0.00 77 1015.6
20260507202031 68 308 4.3 8.7 0.00 0.00 0.00 77 1015.7
20260507201554 68 292 4.3 8.7 0.00 0.00 0.00 78 1015.7
20260507201031 68 242 5.2 8.7 0.00 0.00 0.00 77 1015.7
20260507200532 68 248 5.2 8.7 0.00 0.00 0.00 76 1015.7
20260507200046 68 244 3.5 8.7 0.00 0.00 0.00 77 1015.7
20260507195533 68 223 4.3 8.7 0.00 0.00 0.00 76 1015.7
20260507195033 68 296 3.5 8.7 0.00 0.00 0.00 76 1015.6
20260507194552 68 250 4.3 7.0 0.00 0.00 0.00 77 1015.7
20260507194031 68 298 3.5 7.0 0.00 0.00 0.00 77 1015.7
20260507193531 68 273 2.6 7.8 0.00 0.00 0.00 78 1015.6
20260507193054 67 243 3.5 8.7 0.00 0.00 0.00 77 1015.7
20260507192532 67 286 3.5 8.7 0.00 0.00 0.00 79 1015.7
20260507192031 66 252 3.5 9.6 0.00 0.00 0.00 79 1015.8
20260507191553 67 324 4.3 9.6 0.00 0.00 0.00 79 1015.8
20260507191031 66 256 4.3 8.7 0.00 0.00 0.00 78 1015.8
20260507190531 66 288 4.3 8.7 0.00 0.00 0.00 78 1015.9
20260507190057 67 277 3.5 7.8 0.00 0.00 0.00 79 1015.9
20260507185532 67 263 4.3 8.7 0.00 0.00 0.00 80 1016.0
20260507185035 67 306 2.6 8.7 0.00 0.00 0.00 80 1016.1
20260507184554 66 259 4.3 8.7 0.00 0.00 0.00 79 1016.2
20260507184031 66 292 4.3 8.7 0.00 0.00 0.00 79 1016.2
20260507183531 66 225 5.2 8.7 0.00 0.00 0.00 79 1016.2
20260507183052 66 288 3.5 7.0 0.00 0.00 0.00 79 1016.3
20260507182532 66 294 3.5 7.8 0.00 0.00 0.00 79 1016.3
20260507182033 66 273 3.5 7.8 0.00 0.00 0.00 79 1016.2
20260507181543 66 266 3.5 7.0 0.00 0.00 0.00 78 1016.2
20260507181035 66 319 2.6 7.0 0.00 0.00 0.00 79 1016.3
20260507180536 66 242 2.6 7.0 0.00 0.00 0.00 80 1016.3
20260507180047 66 303 2.6 6.1 0.00 0.00 0.00 79 1016.2
20260507175535 65 267 2.6 6.1 0.00 0.00 0.00 79 1016.3
20260507175035 66 259 1.7 6.1 0.00 0.00 0.00 80 1016.4
20260507174552 65 302 2.6 6.1 0.00 0.00 0.00 80 1016.4
20260507174036 65 297 1.7 6.1 0.00 0.00 0.00 80 1016.4
20260507173539 65 231 2.6 6.1 0.00 0.00 0.00 80 1016.4
20260507173047 65 312 1.7 6.1 0.00 0.00 0.00 80 1016.3
20260507172536 65 235 2.6 6.1 0.00 0.00 0.00 81 1016.3
20260507172034 65 228 2.6 7.8 0.00 0.00 0.00 81 1016.4
20260507171545 64 229 0.9 7.8 0.00 0.00 0.00 81 1016.3
20260507171035 64 327 1.7 6.1 0.00 0.00 0.00 82 1016.4
20260507170535 64 269 1.7 7.0 0.00 0.00 0.00 82 1016.5
20260507170052 64 215 1.7 7.0 0.00 0.00 0.00 81 1016.4
20260507165534 64 198 2.6 5.2 0.00 0.00 0.00 81 1016.5
20260507165031 64 0 0.9 5.2 0.00 0.00 0.00 82 1016.4
20260507164548 64 248 1.7 7.0 0.00 0.00 0.00 83 1016.5
20260507164032 64 313 1.7 7.0 0.00 0.00 0.00 83 1016.5
20260507163536 63 284 0.0 0.9 0.00 0.00 0.00 84 1016.5
20260507163047 63 0 0.0 0.9 0.00 0.00 0.00 84 1016.6
20260507162535 63 0 0.0 0.9 0.00 0.00 0.00 84 1016.6
20260507162035 63 0 0.0 0.9 0.00 0.00 0.00 84 1016.5
20260507161545 62 0 0.0 0.0 0.00 0.00 0.00 84 1016.6
20260507161039 62 0 0.0 0.0 0.00 0.00 0.00 84 1016.6
20260507160535 62 0 0.0 0.0 0.00 0.00 0.00 85 1016.5
20260507160054 62 0 0.0 0.0 0.00 0.00 0.00 85 1016.5
20260507155536 62 0 0.0 0.0 0.00 0.00 0.00 85 1016.6
20260507155032 62 0 0.0 0.0 0.00 0.00 0.00 86 1016.6
20260507154550 62 0 0.0 0.0 0.00 0.00 0.00 86 1016.7
20260507154033 62 0 0.0 0.0 0.00 0.00 0.00 86 1016.6
20260507153531 62 0 0.0 0.0 0.00 0.00 0.00 87 1016.6
20260507153057 61 0 0.0 0.0 0.00 0.00 0.00 87 1016.6
20260507152537 61 0 0.0 0.0 0.00 0.00 0.00 88 1016.5
20260507152034 61 0 0.0 0.0 0.00 0.00 0.00 88 1016.6
20260507151547 61 0 0.0 0.0 0.00 0.00 0.00 89 1016.6
20260507151035 61 0 0.0 0.0 0.00 0.00 0.00 89 1016.6
20260507150535 61 0 0.0 0.0 0.00 0.00 0.00 90 1016.5
20260507150048 61 0 0.0 0.0 0.00 0.00 0.00 90 1016.5
20260507145535 60 0 0.0 0.0 0.00 0.00 0.00 90 1016.5
20260507145035 60 0 0.0 0.0 0.00 0.00 0.00 90 1016.5
20260507144550 60 0 0.0 0.0 0.00 0.00 0.00 90 1016.5
20260507144037 60 0 0.0 0.0 0.00 0.00 0.00 90 1016.4
20260507143535 60 0 0.0 0.0 0.00 0.00 0.00 91 1016.3
20260507143048 60 0 0.0 0.0 0.00 0.00 0.00 91 1016.3
20260507142532 59 0 0.0 0.0 0.00 0.00 0.00 91 1016.3
20260507142032 59 0 0.0 0.0 0.00 0.00 0.00 91 1016.2
20260507141553 59 0 0.0 0.0 0.00 0.00 0.00 91 1016.2
20260507141035 59 0 0.0 0.0 0.00 0.00 0.00 91 1016.1
20260507140534 59 0 0.0 0.0 0.00 0.00 0.00 91 1016.2
20260507140051 59 0 0.0 0.0 0.00 0.00 0.00 91 1016.2
20260507135535 58 0 0.0 0.0 0.00 0.00 0.00 91 1016.1
20260507135035 58 0 0.0 0.0 0.00 0.00 0.00 91 1016.1
20260507134552 58 0 0.0 0.0 0.00 0.00 0.00 91 1016.0
20260507134035 58 0 0.0 0.0 0.00 0.00 0.00 90 1016.1
20260507133536 58 0 0.0 0.0 0.00 0.00 0.00 91 1016.0
20260507133055 58 0 0.0 0.0 0.00 0.00 0.00 91 1016.0
20260507132536 58 0 0.0 0.0 0.00 0.00 0.00 90 1016.0
20260507132033 58 0 0.0 0.0 0.00 0.00 0.00 90 1015.9
20260507131558 58 0 0.0 0.0 0.00 0.00 0.00 90 1015.9
20260507131032 58 0 0.0 0.0 0.00 0.00 0.00 90 1016.0
20260507130538 58 0 0.0 0.0 0.00 0.00 0.00 90 1015.9
20260507130058 57 0 0.0 0.0 0.00 0.00 0.00 90 1015.9
20260507125535 57 0 0.0 0.0 0.00 0.00 0.00 90 1015.8
20260507125034 57 0 0.0 0.0 0.00 0.00 0.00 90 1015.8
20260507124553 57 0 0.0 0.0 0.00 0.00 0.00 90 1015.8
20260507124033 57 0 0.0 0.0 0.00 0.00 0.00 90 1015.8
20260507123534 57 0 0.0 0.0 0.00 0.00 0.00 89 1015.7
20260507123047 57 0 0.0 0.0 0.00 0.00 0.00 89 1015.7
20260507122532 57 0 0.0 0.0 0.00 0.00 0.00 89 1015.7
20260507122032 57 0 0.0 0.0 0.00 0.00 0.00 89 1015.7
20260507121604 57 0 0.0 0.0 0.00 0.00 0.00 88 1015.6
20260507121035 57 0 0.0 0.0 0.00 0.00 0.00 88 1015.6
20260507120532 57 0 0.0 0.0 0.00 0.00 0.00 88 1015.6
20260507120047 57 0 0.0 0.0 0.00 0.00 0.00 88 1015.6
20260507115534 57 0 0.0 0.0 0.00 0.00 0.00 88 1015.6
20260507115033 57 0 0.0 0.0 0.00 0.00 0.00 88 1015.6
20260507114555 57 0 0.0 0.0 0.00 0.00 0.00 88 1015.7
20260507114033 57 0 0.0 0.0 0.00 0.00 0.00 88 1015.6
20260507113533 57 0 0.0 0.0 0.00 0.00 0.00 88 1015.7
20260507113048 58 0 0.0 0.0 0.00 0.00 0.00 88 1015.6
20260507112535 58 0 0.0 0.0 0.00 0.00 0.00 88 1015.7
20260507112032 58 0 0.0 0.0 0.00 0.00 0.00 88 1015.7
20260507111545 58 0 0.0 0.0 0.00 0.00 0.00 88 1015.8
20260507111035 58 0 0.0 0.0 0.00 0.00 0.00 88 1015.8
20260507110535 58 0 0.0 0.0 0.00 0.00 0.00 88 1015.8
20260507110049 58 0 0.0 0.0 0.00 0.00 0.00 88 1015.8
20260507105535 58 0 0.0 0.0 0.00 0.00 0.00 88 1015.8
20260507105036 58 0 0.0 0.0 0.00 0.00 0.00 88 1015.8
20260507104551 59 0 0.0 0.0 0.00 0.00 0.00 88 1015.9
20260507104033 59 0 0.0 0.0 0.00 0.00 0.00 88 1015.9
20260507103537 59 0 0.0 0.0 0.00 0.00 0.00 88 1016.0
20260507103045 59 0 0.0 0.0 0.00 0.00 0.00 88 1016.0
20260507102532 59 0 0.0 0.0 0.00 0.00 0.00 87 1016.0
20260507102032 59 0 0.0 0.0 0.00 0.00 0.00 87 1016.0
20260507101547 59 0 0.0 0.0 0.00 0.00 0.00 87 1016.0
20260507101034 59 0 0.0 0.0 0.00 0.00 0.00 87 1016.1
20260507100539 59 0 0.0 0.0 0.00 0.00 0.00 87 1016.1
20260507100048 59 0 0.0 0.0 0.00 0.00 0.00 88 1016.2
20260507095532 59 0 0.0 0.0 0.00 0.00 0.00 88 1016.2
20260507095032 60 0 0.0 0.0 0.00 0.00 0.00 88 1016.3
20260507094547 60 0 0.0 0.0 0.00 0.00 0.00 88 1016.3
20260507094032 60 0 0.0 0.9 0.00 0.00 0.00 88 1016.3
20260507093534 60 0 0.0 0.9 0.00 0.00 0.00 88 1016.3
20260507093055 60 0 0.0 0.0 0.00 0.00 0.00 88 1016.3
20260507092533 60 0 0.0 0.0 0.00 0.00 0.00 88 1016.4
20260507092034 60 0 0.0 0.0 0.00 0.00 0.00 88 1016.4
20260507091552 60 0 0.0 0.0 0.00 0.00 0.00 88 1016.5
20260507091032 60 0 0.0 0.0 0.00 0.00 0.00 88 1016.5
20260507090534 60 0 0.0 0.0 0.00 0.00 0.00 89 1016.5
20260507090052 60 0 0.0 0.0 0.00 0.00 0.00 89 1016.6
20260507085533 60 0 0.0 1.7 0.00 0.00 0.00 89 1016.6
20260507085032 60 0 0.0 1.7 0.00 0.00 0.00 89 1016.7
20260507084545 60 0 0.0 1.7 0.00 0.00 0.00 89 1016.7
20260507084032 60 0 0.0 0.9 0.00 0.00 0.00 89 1016.8
20260507083532 60 336 0.0 0.9 0.00 0.00 0.00 89 1016.7
20260507083047 59 0 0.0 0.9 0.00 0.00 0.00 89 1016.8
20260507082531 59 0 0.0 0.9 0.00 0.00 0.00 89 1016.9
20260507082032 59 0 0.0 0.0 0.00 0.00 0.00 89 1016.8
20260507081554 59 0 0.0 0.9 0.00 0.00 0.00 89 1016.8
20260507081038 59 0 0.0 0.9 0.00 0.00 0.00 89 1017.0
20260507080534 59 0 0.0 0.9 0.00 0.00 0.00 89 1017.0
20260507080057 59 0 0.0 0.9 0.00 0.00 0.00 88 1017.0
20260507075534 59 0 0.0 0.0 0.00 0.00 0.00 88 1017.1
20260507075034 59 0 0.0 0.0 0.00 0.00 0.00 88 1017.1
20260507074557 59 0 0.0 0.0 0.00 0.00 0.00 88 1017.2
20260507074034 59 0 0.0 0.0 0.00 0.00 0.00 88 1017.2
20260507073535 59 0 0.0 0.0 0.00 0.00 0.00 88 1017.2
20260507073045 59 0 0.0 0.0 0.00 0.00 0.00 87 1017.2
20260507072535 59 0 0.0 0.0 0.00 0.00 0.00 87 1017.3
20260507072033 59 0 0.0 0.0 0.00 0.00 0.00 87 1017.3
20260507071546 59 0 0.0 0.0 0.00 0.00 0.00 87 1017.3
20260507071035 59 0 0.0 0.0 0.00 0.00 0.00 87 1017.3
20260507070535 59 0 0.0 0.9 0.00 0.00 0.00 87 1017.3
20260507070045 59 0 0.0 0.9 0.00 0.00 0.00 87 1017.3
20260507065534 59 0 0.0 0.9 0.00 0.00 0.00 87 1017.3
20260507065034 59 0 0.0 0.9 0.00 0.00 0.00 87 1017.3
20260507064547 59 0 0.0 0.0 0.00 0.00 0.00 87 1017.3
20260507064037 59 0 0.0 0.0 0.00 0.00 0.00 87 1017.4
20260507063533 59 0 0.0 0.0 0.00 0.00 0.00 87 1017.3
20260507063047 59 0 0.0 0.0 0.00 0.00 0.00 87 1017.4
20260507062535 59 0 0.0 0.0 0.00 0.00 0.00 87 1017.4
20260507062033 59 0 0.0 0.0 0.00 0.00 0.00 87 1017.4
20260507061544 59 0 0.0 0.0 0.00 0.00 0.00 87 1017.4
20260507061033 59 0 0.0 0.0 0.00 0.00 0.00 87 1017.4
20260507060535 59 0 0.0 0.0 0.00 0.00 0.00 87 1017.3
20260507060048 59 0 0.0 0.0 0.00 0.00 0.00 87 1017.4
20260507055551 59 0 0.0 0.9 0.00 0.00 0.00 87 1017.4
20260507055038 59 0 0.0 0.9 0.00 0.00 0.00 87 1017.4
20260507054621 59 0 0.0 0.9 0.00 0.00 0.00 87 1017.5
20260507054035 59 0 0.0 0.0 0.00 0.00 0.00 87 1017.5
20260507053535 59 0 0.0 0.0 0.00 0.00 0.00 87 1017.4
20260507053049 60 0 0.0 0.0 0.00 0.00 0.00 87 1017.4
20260507052533 60 0 0.0 0.0 0.00 0.00 0.00 87 1017.4
20260507052032 60 0 0.0 0.0 0.00 0.00 0.00 87 1017.3
20260507051547 60 0 0.0 0.0 0.00 0.00 0.00 87 1017.4
20260507051035 60 0 0.0 0.9 0.00 0.00 0.00 87 1017.4
20260507050533 60 0 0.0 0.9 0.00 0.00 0.00 87 1017.3
20260507050056 60 0 0.0 0.9 0.00 0.00 0.00 87 1017.3
20260507045532 60 0 0.0 0.9 0.00 0.00 0.00 87 1017.3
20260507045033 60 0 0.0 0.9 0.00 0.00 0.00 87 1017.3
20260507044552 60 0 0.0 3.5 0.00 0.00 0.00 87 1017.3
20260507044032 60 336 0.0 3.5 0.00 0.00 0.00 87 1017.3
20260507043532 60 0 0.0 1.7 0.00 0.00 0.00 87 1017.3
20260507043053 60 0 0.0 1.7 0.00 0.00 0.00 87 1017.3
20260507042533 60 0 0.0 0.9 0.00 0.00 0.00 86 1017.2
20260507042032 60 0 0.0 1.7 0.00 0.00 0.00 86 1017.2
20260507041559 60 0 0.0 1.7 0.00 0.00 0.00 86 1017.2
20260507041032 60 0 0.0 2.6 0.00 0.00 0.00 86 1017.1
20260507040533 61 0 0.0 2.6 0.00 0.00 0.00 86 1017.2
20260507040051 61 0 0.0 1.7 0.00 0.00 0.00 86 1017.1
20260507035533 61 0 0.0 1.7 0.00 0.00 0.00 86 1017.2
20260507035032 61 331 0.0 2.6 0.00 0.00 0.00 86 1017.1
20260507034558 61 0 0.0 2.6 0.00 0.00 0.00 86 1017.1
20260507034032 61 340 0.0 1.7 0.00 0.00 0.00 86 1017.1
20260507033532 61 336 0.0 1.7 0.00 0.00 0.00 86 1017.0
20260507033046 61 0 0.0 1.7 0.00 0.00 0.00 85 1017.0
20260507032531 61 0 0.0 2.6 0.00 0.00 0.00 85 1017.0
20260507032032 61 323 0.0 2.6 0.00 0.00 0.00 85 1016.9
20260507031555 61 0 0.0 2.6 0.00 0.00 0.00 85 1016.9
20260507031033 62 289 0.9 2.6 0.00 0.00 0.00 85 1016.8
20260507030533 62 287 0.9 2.6 0.00 0.00 0.00 84 1016.8
20260507030056 62 0 0.9 2.6 0.00 0.00 0.00 84 1016.7
20260507025532 62 0 0.0 2.6 0.00 0.00 0.00 83 1016.7
20260507025032 62 302 0.0 2.6 0.00 0.00 0.00 83 1016.7
20260507024548 62 302 0.9 2.6 0.00 0.00 0.00 83 1016.6
20260507024032 62 292 0.9 2.6 0.00 0.00 0.00 83 1016.5
20260507023534 63 289 0.9 3.5 0.00 0.00 0.00 82 1016.5
20260507023051 63 306 1.7 4.3 0.00 0.00 0.00 82 1016.6
20260507022535 63 291 1.7 5.2 0.00 0.00 0.00 81 1016.5
20260507022034 63 296 1.7 6.1 0.00 0.00 0.00 80 1016.5
20260507021546 64 290 2.6 6.1 0.00 0.00 0.00 80 1016.5
20260507021031 64 293 1.7 6.1 0.00 0.00 0.00 80 1016.5
20260507020531 64 302 1.7 6.1 0.00 0.00 0.00 80 1016.5
20260507020050 64 303 2.6 6.1 0.00 0.00 0.00 80 1016.4
20260507015534 64 281 2.6 7.0 0.00 0.00 0.00 80 1016.3
20260507015031 65 296 2.6 7.0 0.00 0.00 0.00 80 1016.3
20260507014555 65 286 3.5 7.8 0.00 0.00 0.00 79 1016.3
20260507014035 65 279 2.6 7.8 0.00 0.00 0.00 79 1016.4
20260507013534 65 309 2.6 7.0 0.00 0.00 0.00 78 1016.3
20260507013048 65 302 3.5 7.8 0.00 0.00 0.00 77 1016.3
20260507012532 66 323 3.5 7.8 0.00 0.00 0.00 78 1016.4
20260507012034 66 271 2.6 7.8 0.00 0.00 0.00 78 1016.4
20260507011548 66 312 3.5 7.8 0.00 0.00 0.00 77 1016.3
20260507011031 66 305 3.5 7.0 0.00 0.00 0.00 77 1016.3
20260507010531 66 328 2.6 7.8 0.00 0.00 0.00 77 1016.2
20260507010045 66 309 4.3 7.8 0.00 0.00 0.00 76 1016.2
20260507005531 66 269 2.6 7.8 0.00 0.00 0.00 76 1016.3
20260507005034 66 259 3.5 7.0 0.00 0.00 0.00 77 1016.2
20260507004546 66 309 3.5 7.0 0.00 0.00 0.00 77 1016.2
20260507004035 66 37 3.5 9.6 0.00 0.00 0.00 77 1016.1
20260507003531 66 326 3.5 9.6 0.00 0.00 0.00 77 1016.2
20260507003052 66 304 4.3 9.6 0.00 0.00 0.00 78 1016.1
20260507002531 66 272 4.3 11.3 0.00 0.00 0.00 78 1016.1
20260507002031 66 275 4.3 11.3 0.00 0.00 0.00 78 1016.2
20260507001543 66 251 5.2 9.6 0.00 0.00 0.00 77 1016.1
20260507001034 67 280 5.2 10.4 0.00 0.00 0.00 78 1016.0
20260507000534 67 298 4.3 10.4 0.00 0.00 0.00 77 1016.0